Vorticity
47 30 21 -2 46 36 4 8 16 10 9 10 12 9 8 6 5 -1 9 -2 -1 4 15 27 13 23 6 7 6 17 10 6 5 4 8 4 13 11 9 -3 -0 5 11 11 25 9 18 17 -7 4 -10 8 9 6
52 9 49 35 -14 1 17 3 8 12 13 12 11 9 8 8 6 -2 6 10 4 -0 6 10 21 13 22 7 -0 5 7 14 2 2 6 17 8 8 8 2 12 15 9 -4 -3 -6 -18 -1 19 -4 4 7 13 14
20 17 26 25 12 6 7 6 6 10 12 13 13 11 10 7 5 3 1 9 17 9 -6 19 16 12 24 5 10 3 8 1 8 6 1 12 -4 12 6 14 13 14 12 4 13 12 0 10 7 11 9 6 6 6
19 8 6 6 7 6 9 11 12 13 14 15 15 15 13 9 6 8 3 5 5 23 4 20 12 5 18 9 4 17 8 12 12 8 6 8 6 11 8 7 4 2 4 5 9 15 7 7 4 7 9 10 11 12
10 5 7 6 5 7 13 15 14 14 13 15 17 17 16 7 6 5 -9 17 9 -22 30 13 9 11 12 3 -1 8 13 7 6 6 0 6 10 11 9 11 6 11 10 7 2 2 5 8 8 13 13 10 10 10
3 5 6 8 13 11 15 8 11 13 14 12 14 13 11 10 6 -5 30 -2 11 -15 39 9 8 6 6 11 14 9 4 7 7 5 6 12 7 8 12 12 2 9 8 1 2 7 10 14 10 8 7 4 7 8
13 6 8 10 9 7 13 18 14 18 20 23 20 17 16 14 -7 7 -7 21 5 12 21 21 14 10 9 6 6 7 6 4 3 5 5 5 7 12 9 6 2 6 6 9 11 12 13 10 -0 3 9 14 18 18
6 5 9 9 16 10 6 7 12 11 15 17 9 9 9 -3 3 -3 -0 21 8 7 3 4 25 22 6 9 8 9 8 8 7 5 8 10 15 10 14 13 12 8 8 7 8 7 1 11 20 17 17 14 8 17
0 7 2 -2 10 13 30 -2 8 13 11 10 11 11 11 11 8 -3 3 18 7 1 8 0 5 15 23 10 11 10 9 10 10 7 9 17 10 3 4 6 10 10 3 3 6 17 18 11 15 12 11 21 18 22
8 9 -2 -2 -22 3 -15 12 20 12 19 8 10 7 10 9 9 13 20 12 10 8 7 7 19 1 9 13 9 9 14 23 15 18 29 23 12 10 8 11 12 12 16 19 13 11 12 15 20 28 19 16 25 23
-2 10 -2 6 6 25 2 4 19 4 9 12 7 5 12 13 15 0 7 8 8 14 21 5 1 3 4 7 9 6 9 8 18 20 3 21 17 11 12 11 10 16 15 13 23 23 20 18 20 18 17 16 5 10
13 17 -3 3 4 9 26 -6 3 9 7 3 -8 10 6 -1 3 4 20 8 12 7 1 10 5 -1 2 9 10 18 11 17 7 21 14 13 9 11 12 10 19 14 17 13 13 16 14 13 8 3 4 7 8 8
-1 13 10 4 -5 9 15 43 -7 1 9 4 -3 7 14 3 11 10 21 11 12 1 13 14 11 12 20 14 15 15 12 12 18 14 9 5 18 13 8 10 13 9 10 12 13 13 11 9 9 12 9 9 11 10
12 -3 -2 9 9 9 10 6 22 35 1 4 -6 20 5 22 22 7 10 3 6 15 16 16 15 10 21 19 7 8 13 10 11 7 7 18 17 17 11 9 10 10 12 8 7 6 5 5 4 5 8 6 5 6
15 28 11 17 8 1 14 15 13 12 12 3 1 14 10 12 14 16 20 10 13 11 14 18 17 8 11 2 20 8 11 13 12 11 16 23 13 14 11 8 9 11 10 7 8 9 6 7 9 7 6 7 5 5
25 61 27 26 12 11 8 12 4 1 7 -7 6 14 21 11 5 7 11 10 13 10 13 9 11 21 10 7 16 8 7 14 16 18 11 13 19 14 9 11 8 8 4 8 7 6 8 7 8 7 5 5 6 6
-2 3 8 7 10 44 31 30 15 13 16 11 33 28 25 22 19 15 10 12 19 19 6 3 17 10 13 14 11 15 9 2 8 17 16 15 11 9 10 11 8 14 11 5 6 8 8 8 7 6 6 6 5 3
16 12 10 9 6 7 6 6 4 10 15 8 9 4 4 5 6 8 9 10 11 11 8 -1 3 8 7 10 12 7 11 11 13 12 12 11 6 7 14 14 8 5 5 6 8 9 8 7 7 7 5 2 1 1
14 21 24 22 20 17 7 14 12 15 11 8 13 13 12 14 14 15 16 17 17 16 14 11 4 21 11 8 9 11 13 13 11 11 9 11 11 6 7 7 6 6 6 7 10 8 8 8 5 3 2 1 2 5
6 7 8 10 9 8 13 19 11 14 15 12 15 13 11 10 12 14 12 12 13 12 11 10 9 8 7 12 10 8 8 7 7 7 8 10 8 8 7 6 6 7 7 10 8 8 8 5 2 1 1 4 7 11
7 7 7 7 7 10 13 9 11 11 9 11 12 12 14 14 16 13 13 11 10 7 8 7 7 8 9 7 7 7 6 7 7 8 8 9 8 10 9 9 6 8 10 7 9 7 4 1 2 2 6 10 11 9
12 12 11 12 13 12 12 12 12 6 16 12 13 10 10 7 5 6 5 6 5 6 7 7 7 8 9 8 7 6 7 7 10 11 9 10 11 10 10 10 10 8 8 9 6 3 2 3 4 10 13 10 11 19
15 15 17 18 16 12 9 12 12 15 13 6 11 11 11 11 11 17 16 23 21 19 14 13 10 10 10 12 10 12 14 14 12 12 11 9 10 11 10 8 8 9 8 6 4 4 4 10 13 10 8 16 20 18
24 26 16 14 20 11 12 14 16 15 11 16 12 13 15 16 15 18 15 18 17 16 17 19 14 14 13 6 13 22 -9 5 16 15 10 11 11 9 9 10 10 8 5 3 5 11 13 10 7 13 19 17 14 13
17 14 7 16 9 14 10 19 12 4 5 11 19 18 10 10 11 11 11 12 8 13 17 19 18 16 8 2 2 12 18 13 12 11 11 13 13 12 9 6 4 5 8 13 13 10 7 11 17 16 13 13 15 16
16 12 15 10 6 7 11 10 8 10 7 14 5 9 11 18 17 9 8 11 16 19 16 15 12 9 8 7 11 16 14 13 11 11 11 10 7 5 4 7 11 14 12 9 6 8 16 16 14 14 16 18 16 13
14 7 8 9 14 15 16 14 14 16 13 7 5 11 16 13 13 5 19 21 23 24 19 13 10 9 11 17 14 10 11 12 10 6 3 4 9 13 14 13 11 6 6 8 16 18 16 13 14 16 18 14 14 15
21 12 13 17 17 15 9 12 13 6 8 6 12 14 13 7 5 7 9 9 7 8 9 10 10 10 10 9 10 8 6 1 3 11 15 14 12 10 8 5 6 10 15 17 16 13 12 14 15 14 15 16 12 12
16 15 13 15 15 7 6 10 8 5 9 14 10 12 7 9 8 9 9 8 9 9 8 7 7 7 6 4 4 8 15 17 15 12 10 7 8 9 10 10 11 14 16 14 13 11 12 14 16 19 14 11 12 14
5 8 7 8 8 6 5 7 7 7 7 7 7 9 9 7 5 8 10 10 10 9 9 9 10 11 13 15 13 14 12 9 8 9 10 9 9 10 11 14 14 12 13 13 13 14 15 18 16 12 11 11 13 14
7 7 9 8 10 9 11 10 12 13 13 13 13 12 11 12 11 9 10 10 11 12 14 15 15 13 16 14 8 9 9 8 8 9 11 11 11 11 12 15 18 18 17 16 16 16 16 14 12 10 10 12 12 14
11 8 7 9 13 9 13 11 10 12 12 13 13 13 13 13 12 16 19 18 15 15 13 15 13 9 10 9 8 9 10 10 10 8 9 16 18 15 14 14 14 14 15 15 14 14 13 11 11 11 11 12 13 13
11 13 16 9 13 15 12 11 10 11 15 13 15 20 24 25 22 21 18 14 10 8 11 12 11 10 8 8 10 6 5 10 14 13 12 13 14 14 14 14 14 13 13 13 13 12 12 12 12 12 12 13 13 14
Height
2806 2815 2825 2835 2844 2860 2871 2882 2893 2907 2920 2931 2944 2955 2967 2979 2991 3001 3010 3018 3025 3031 3036 3039 3044 3049 3056 3062 3066 3069 3074 3075 3078 3081 3083 3084 3085 3086 3087 3088 3088 3090 3090 3090 3090 3090 3089 3087 3087 3089 3087 3083 3081 3079
2820 2828 2836 2849 2861 2869 2882 2893 2904 2915 2926 2937 2948 2958 2969 2980 2991 3001 3010 3017 3023 3029 3034 3037 3042 3048 3054 3059 3064 3067 3070 3072 3075 3077 3079 3080 3081 3082 3083 3085 3085 3087 3087 3087 3089 3087 3085 3084 3083 3081 3079 3077 3076 3074
2835 2844 2852 2860 2872 2883 2894 2904 2913 2923 2933 2942 2951 2961 2971 2982 2993 3001 3009 3015 3022 3027 3032 3036 3039 3045 3049 3056 3060 3064 3066 3069 3071 3074 3075 3077 3078 3079 3080 3081 3081 3081 3082 3081 3082 3083 3081 3079 3077 3075 3073 3071 3069 3067
2849 2858 2867 2876 2886 2895 2903 2912 2921 2928 2937 2945 2954 2963 2974 2984 2993 3002 3009 3015 3020 3025 3028 3033 3038 3043 3047 3052 3057 3060 3063 3066 3069 3071 3072 3073 3075 3076 3076 3078 3078 3078 3077 3077 3076 3076 3074 3074 3070 3068 3066 3064 3061 3059
2865 2873 2881 2888 2895 2903 2910 2919 2926 2933 2940 2948 2957 2966 2976 2985 2993 3001 3008 3013 3018 3025 3027 3031 3037 3041 3046 3050 3053 3057 3060 3062 3065 3067 3068 3070 3071 3072 3072 3073 3074 3073 3072 3071 3070 3070 3068 3067 3064 3061 3059 3056 3054 3051
2880 2887 2893 2899 2905 2911 2918 2925 2931 2938 2945 2953 2961 2970 2978 2987 2996 3003 3008 3011 3016 3022 3026 3029 3035 3039 3043 3047 3050 3053 3056 3058 3060 3062 3064 3064 3066 3068 3067 3068 3068 3067 3066 3064 3064 3063 3061 3059 3056 3054 3051 3048 3045 3043
2893 2898 2903 2908 2913 2919 2925 2931 2938 2944 2950 2957 2965 2974 2982 2990 2998 3003 3008 3013 3016 3021 3025 3029 3032 3036 3040 3043 3047 3049 3052 3054 3056 3057 3058 3059 3061 3061 3061 3062 3062 3061 3060 3058 3056 3055 3053 3052 3049 3046 3043 3040 3037 3034
2906 2910 2914 2918 2921 2926 2933 2938 2944 2950 2956 2963 2970 2977 2985 2992 2999 3001 3006 3012 3016 3021 3025 3026 3029 3034 3037 3040 3043 3046 3047 3049 3050 3051 3052 3053 3054 3054 3054 3055 3054 3054 3053 3051 3049 3047 3046 3044 3041 3038 3035 3032 3030 3027
2915 2919 2923 2927 2930 2934 2938 2944 2950 2956 2962 2968 2974 2981 2986 2992 2998 3003 3008 3012 3016 3022 3022 3025 3028 3031 3033 3036 3039 3041 3042 3043 3045 3045 3047 3048 3046 3046 3047 3047 3047 3046 3046 3044 3043 3041 3038 3036 3033 3031 3028 3026 3024 3022
2922 2926 2930 2935 2938 2940 2941 2950 2955 2960 2966 2972 2978 2983 2989 2994 2999 3004 3008 3010 3014 3016 3020 3022 3025 3028 3031 3033 3035 3038 3037 3038 3038 3039 3039 3038 3037 3039 3039 3039 3038 3038 3037 3037 3035 3034 3032 3029 3027 3024 3023 3022 3021 3020
2928 2932 2936 2940 2944 2947 2951 2953 2956 2962 2968 2973 2978 2985 2990 2995 3000 3003 3005 3009 3012 3015 3018 3020 3023 3025 3027 3029 3030 3032 3032 3032 3032 3033 3034 3030 3029 3031 3031 3031 3032 3032 3032 3031 3030 3028 3026 3024 3023 3022 3021 3021 3020 3019
2933 2936 2940 2944 2948 2952 2955 2958 2962 2968 2973 2978 2983 2986 2991 2994 2997 3001 3003 3007 3009 3012 3013 3016 3019 3021 3022 3023 3025 3027 3028 3028 3026 3026 3027 3024 3024 3025 3026 3027 3027 3027 3026 3025 3025 3024 3023 3023 3022 3021 3020 3018 3016 3015
2936 2940 2944 2947 2951 2954 2957 2960 2963 2967 2971 2976 2980 2985 2988 2992 2994 2998 2999 3000 3003 3005 3008 3010 3013 3014 3016 3019 3021 3023 3022 3022 3022 3021 3020 3018 3019 3020 3021 3022 3022 3022 3022 3022 3022 3022 3021 3021 3019 3017 3015 3013 3012 3010
2937 2941 2945 2948 2952 2955 2957 2961 2965 2968 2972 2976 2979 2983 2986 2987 2989 2990 2992 2996 2999 3001 3004 3006 3008 3011 3012 3014 3016 3016 3017 3017 3016 3015 3013 3013 3015 3017 3018 3018 3019 3020 3020 3020 3019 3019 3018 3017 3015 3014 3012 3010 3008 3006
2939 2942 2945 2948 2951 2955 2958 2961 2964 2968 2971 2976 2979 2981 2982 2984 2986 2988 2991 2994 2996 2998 3000 3002 3005 3008 3009 3011 3011 3012 3011 3010 3009 3008 3009 3011 3013 3014 3015 3016 3017 3017 3017 3017 3016 3015 3014 3013 3011 3010 3008 3006 3004 3001
2943 2944 2947 2950 2952 2954 2957 2960 2964 2968 2971 2974 2976 2977 2979 2982 2984 2986 2988 2989 2991 2994 2996 2999 3001 3003 3004 3005 3006 3005 3006 3005 3005 3006 3008 3009 3011 3012 3013 3013 3014 3014 3014 3013 3012 3011 3010 3009 3007 3005 3003 3001 2998 2995
2948 2950 2951 2952 2954 2954 2957 2961 2964 2967 2969 2971 2973 2975 2977 2980 2982 2983 2985 2987 2989 2992 2993 2996 2997 2998 3000 3001 3001 3001 3002 3003 3004 3004 3005 3007 3008 3009 3009 3010 3010 3009 3009 3009 3008 3006 3005 3004 3002 3000 2997 2995 2992 2989
2951 2952 2953 2955 2957 2959 2961 2963 2965 2967 2969 2972 2974 2977 2979 2980 2982 2983 2984 2986 2988 2989 2991 2993 2994 2995 2996 2997 2998 2999 3000 3000 3001 3002 3003 3004 3005 3005 3006 3006 3006 3005 3005 3004 3003 3002 3000 2999 2997 2994 2992 2988 2984 2980
2955 2955 2956 2957 2959 2961 2962 2965 2967 2967 2970 2972 2974 2976 2977 2979 2980 2982 2983 2984 2986 2988 2990 2991 2992 2993 2994 2995 2996 2997 2998 2999 2999 2999 3000 3001 3001 3002 3002 3002 3002 3001 3000 2999 2997 2995 2994 2992 2990 2987 2983 2980 2975 2969
2959 2959 2960 2960 2961 2962 2963 2965 2966 2967 2969 2971 2973 2974 2976 2978 2979 2981 2982 2984 2985 2986 2988 2989 2990 2992 2993 2993 2994 2995 2996 2996 2997 2997 2997 2997 2998 2998 2998 2997 2997 2996 2994 2993 2992 2990 2987 2985 2982 2979 2974 2970 2964 2958
2962 2962 2962 2963 2963 2964 2965 2965 2967 2969 2969 2971 2972 2974 2976 2977 2979 2980 2982 2983 2985 2986 2987 2988 2989 2990 2991 2991 2992 2992 2993 2993 2993 2993 2993 2993 2993 2993 2993 2992 2991 2990 2989 2987 2985 2982 2980 2978 2974 2970 2965 2959 2953 2947
2962 2962 2962 2962 2963 2964 2965 2966 2968 2969 2971 2971 2973 2974 2975 2976 2977 2979 2980 2982 2983 2984 2985 2986 2986 2987 2987 2988 2988 2988 2989 2989 2989 2989 2989 2989 2988 2988 2987 2986 2985 2983 2982 2980 2978 2975 2972 2968 2964 2959 2954 2948 2942 2935
2962 2962 2961 2961 2963 2963 2966 2966 2967 2968 2969 2971 2972 2972 2973 2974 2975 2977 2977 2978 2978 2979 2980 2981 2982 2982 2983 2983 2984 2984 2984 2984 2984 2984 2984 2984 2983 2982 2981 2980 2978 2977 2975 2973 2970 2966 2962 2958 2953 2948 2943 2937 2931 2925
2959 2959 2959 2961 2962 2964 2966 2967 2968 2969 2969 2970 2971 2972 2972 2973 2973 2974 2974 2975 2975 2975 2975 2976 2977 2978 2979 2979 2979 2979 2979 2979 2979 2979 2978 2978 2977 2976 2975 2973 2972 2970 2967 2964 2960 2956 2952 2947 2942 2937 2932 2927 2921 2916
2960 2961 2964 2964 2965 2967 2967 2968 2969 2970 2971 2971 2971 2971 2971 2971 2972 2972 2972 2972 2971 2971 2971 2971 2972 2973 2974 2974 2974 2974 2973 2973 2973 2974 2973 2972 2971 2970 2969 2967 2964 2962 2958 2954 2950 2946 2941 2936 2931 2927 2922 2917 2913 2908
2961 2965 2967 2967 2968 2969 2969 2970 2970 2971 2971 2971 2972 2971 2971 2971 2971 2970 2970 2970 2969 2969 2969 2969 2970 2970 2970 2970 2970 2969 2969 2969 2969 2968 2968 2966 2965 2963 2961 2958 2955 2952 2948 2944 2940 2936 2931 2926 2922 2918 2913 2908 2904 2900
2964 2966 2968 2968 2968 2969 2969 2970 2970 2971 2970 2971 2971 2970 2970 2971 2970 2971 2969 2968 2967 2967 2967 2967 2968 2967 2967 2966 2966 2965 2965 2965 2964 2963 2961 2959 2957 2955 2952 2949 2945 2942 2938 2934 2930 2926 2922 2917 2913 2908 2904 2900 2896 2892
2966 2968 2969 2970 2969 2969 2970 2970 2970 2970 2970 2971 2971 2970 2970 2970 2971 2969 2968 2967 2967 2966 2966 2965 2965 2965 2964 2963 2962 2961 2960 2959 2958 2955 2953 2951 2948 2945 2942 2939 2936 2932 2928 2924 2920 2916 2912 2908 2904 2900 2896 2892 2889 2885
2970 2970 2971 2971 2971 2971 2970 2970 2970 2970 2970 2969 2969 2969 2969 2968 2967 2966 2965 2964 2964 2963 2962 2962 2961 2960 2959 2958 2957 2955 2953 2951 2949 2947 2944 2942 2939 2937 2933 2929 2925 2921 2918 2914 2910 2907 2904 2900 2896 2892 2889 2885 2881 2878
2973 2972 2972 2972 2972 2971 2971 2970 2969 2968 2968 2967 2967 2966 2965 2964 2963 2962 2961 2960 2959 2958 2957 2956 2955 2954 2952 2951 2949 2947 2945 2944 2942 2940 2937 2934 2931 2927 2924 2920 2916 2913 2909 2905 2902 2898 2894 2891 2887 2885 2881 2878 2874 2870
2973 2972 2972 2971 2970 2969 2968 2967 2966 2965 2964 2963 2962 2962 2960 2959 2958 2957 2956 2954 2953 2952 2951 2949 2948 2947 2945 2944 2942 2941 2939 2937 2934 2932 2928 2925 2922 2918 2914 2910 2906 2903 2899 2896 2893 2890 2887 2884 2881 2877 2874 2871 2867 2864
2971 2971 2970 2968 2967 2966 2965 2964 2962 2961 2960 2959 2957 2956 2955 2953 2952 2951 2949 2948 2947 2946 2945 2944 2943 2942 2940 2939 2937 2935 2932 2929 2926 2923 2919 2916 2912 2908 2905 2901 2898 2894 2891 2888 2885 2882 2879 2876 2873 2870 2867 2864 2861 2857
2968 2967 2966 2965 2963 2962 2961 2960 2958 2957 2955 2954 2952 2950 2949 2948 2946 2946 2944 2943 2943 2942 2941 2939 2938 2936 2934 2932 2930 2928 2925 2921 2918 2914 2911 2907 2903 2900 2896 2893 2889 2886 2883 2880 2877 2874 2871 2868 2866 2863 2860 2857 2854 2851